ENT5847 EPWA-DTMB

Flight info

Callsign ENT5847
Flight time 2h 40m
Altitude 36000
Route EVINA DCT SKARY DCT XOMBA/N0462F380 DCT NEKIN DCT NIVES DCT XAMIT/N0448F390 DCT PININ/N0447F350 DCT SUSIP/N0433F300 UB979 SIRVI/N0425F290 UG727 DIDON G727 ATLEL ATLEL1R
Aircraft B738/M-SDFGHIJ1RWXY/EB1

Departure

Time 2026-04-30 07:12
Airport Warsaw Chopin Airport (EPWA)

Arrival

Time 2026-04-30 09:52
Airport Monastir Habib Bourguiba International Airport (DTMB)
Time Latitude Longitude Altitude Speed Heading
2026-04-30 06:15 52.16623 20.97456 338 ft 0 kts 24°
2026-04-30 06:57 52.16606 20.97443 338 ft 4 kts 24°
2026-04-30 06:57 52.16585 20.97428 332 ft 4 kts 15°
2026-04-30 06:58 52.16563 20.97430 338 ft 4 kts 319°
2026-04-30 06:58 52.16549 20.97461 338 ft 1 kts 294°
2026-04-30 06:58 52.16549 20.97462 338 ft 0 kts 294°
2026-04-30 07:02 52.16550 20.97457 338 ft 2 kts 294°
2026-04-30 07:02 52.16572 20.97381 334 ft 9 kts 296°
2026-04-30 07:02 52.16599 20.97330 335 ft 9 kts 324°
2026-04-30 07:02 52.16654 20.97280 333 ft 9 kts 331°
2026-04-30 07:03 52.16708 20.97232 336 ft 9 kts 329°
2026-04-30 07:03 52.16716 20.97145 336 ft 8 kts 250°
2026-04-30 07:03 52.16687 20.97063 335 ft 8 kts 226°
2026-04-30 07:03 52.16632 20.97059 337 ft 9 kts 156°
2026-04-30 07:04 52.16572 20.97111 333 ft 11 kts 152°
2026-04-30 07:04 52.16497 20.97176 335 ft 14 kts 152°
2026-04-30 07:04 52.16394 20.97266 336 ft 20 kts 152°
2026-04-30 07:04 52.16263 20.97381 335 ft 22 kts 152°
2026-04-30 07:05 52.16006 20.97605 334 ft 20 kts 152°
2026-04-30 07:05 52.15886 20.97712 337 ft 20 kts 151°
2026-04-30 07:05 52.15767 20.97817 334 ft 19 kts 152°
2026-04-30 07:06 52.15657 20.97911 338 ft 12 kts 151°
2026-04-30 07:06 52.15641 20.98022 334 ft 12 kts 50°
2026-04-30 07:06 52.15711 20.98086 334 ft 11 kts 24°
2026-04-30 07:06 52.15782 20.98139 338 ft 11 kts 25°
2026-04-30 07:07 52.15852 20.98191 338 ft 11 kts 24°
2026-04-30 07:07 52.15931 20.98249 338 ft 14 kts 24°
2026-04-30 07:07 52.16002 20.98301 334 ft 0 kts 24°
2026-04-30 07:09 52.16009 20.98306 337 ft 3 kts 24°
2026-04-30 07:09 52.16054 20.98338 337 ft 11 kts 24°
2026-04-30 07:10 52.16115 20.98338 333 ft 8 kts 313°
2026-04-30 07:10 52.16135 20.98280 336 ft 0 kts 294°
2026-04-30 07:11 52.16147 20.98236 334 ft 18 kts 294°
2026-04-30 07:11 52.16306 20.97672 336 ft 91 kts 294°
2026-04-30 07:11 52.16660 20.96417 344 ft 152 kts 294°
2026-04-30 07:12 52.17148 20.94659 692 ft 176 kts 295°
2026-04-30 07:12 52.17637 20.92839 1642 ft 171 kts 295°
2026-04-30 07:12 52.18138 20.90995 2197 ft 193 kts 291°
2026-04-30 07:12 52.18253 20.88718 2488 ft 219 kts 259°
2026-04-30 07:13 52.17853 20.86215 3039 ft 233 kts 257°
2026-04-30 07:13 52.17440 20.83638 3664 ft 242 kts 258°
2026-04-30 07:13 52.17053 20.80872 4314 ft 255 kts 257°
2026-04-30 07:13 52.16212 20.78312 5110 ft 265 kts 224°
2026-04-30 07:14 52.14643 20.76747 6008 ft 267 kts 203°
2026-04-30 07:14 52.12877 20.75692 6735 ft 275 kts 200°
2026-04-30 07:14 52.11044 20.74715 7486 ft 279 kts 199°
2026-04-30 07:14 52.09181 20.73742 8279 ft 283 kts 199°
2026-04-30 07:15 52.07292 20.72751 9016 ft 288 kts 199°
2026-04-30 07:15 52.05365 20.71729 9717 ft 294 kts 199°
2026-04-30 07:15 52.03405 20.70682 10414 ft 299 kts 199°
2026-04-30 07:15 52.01389 20.69597 10884 ft 315 kts 199°
2026-04-30 07:16 51.99230 20.68432 11063 ft 339 kts 199°
2026-04-30 07:16 51.96926 20.67186 11383 ft 356 kts 199°
2026-04-30 07:16 51.94585 20.65919 11999 ft 362 kts 199°
2026-04-30 07:16 51.92193 20.64529 12571 ft 370 kts 202°
2026-04-30 07:17 51.89791 20.62886 13126 ft 378 kts 204°
2026-04-30 07:17 51.87555 20.61265 13723 ft 382 kts 205°
2026-04-30 07:17 51.82702 20.57707 14938 ft 392 kts 204°
2026-04-30 07:18 51.80199 20.55890 15535 ft 396 kts 204°
2026-04-30 07:18 51.77692 20.54087 16127 ft 401 kts 204°
2026-04-30 07:18 51.75124 20.52255 16659 ft 406 kts 204°
2026-04-30 07:18 51.72523 20.50409 17213 ft 411 kts 204°
2026-04-30 07:19 51.69885 20.48544 17778 ft 415 kts 204°
2026-04-30 07:19 51.67226 20.46670 18303 ft 420 kts 203°
2026-04-30 07:19 51.64535 20.44775 18837 ft 424 kts 203°
2026-04-30 07:19 51.61822 20.42869 19379 ft 427 kts 203°
2026-04-30 07:20 51.59083 20.40946 19916 ft 431 kts 203°
2026-04-30 07:20 51.56319 20.39008 20421 ft 435 kts 203°
2026-04-30 07:20 51.53539 20.37062 20936 ft 438 kts 203°
2026-04-30 07:20 51.50729 20.35097 21406 ft 441 kts 203°
2026-04-30 07:21 51.47904 20.33124 21892 ft 445 kts 203°
2026-04-30 07:21 51.45058 20.31139 22347 ft 448 kts 203°
2026-04-30 07:21 51.42226 20.29166 22801 ft 451 kts 203°
2026-04-30 07:21 51.39332 20.27152 23235 ft 454 kts 203°
2026-04-30 07:22 51.33498 20.23103 24111 ft 459 kts 203°
2026-04-30 07:22 51.30555 20.21065 24516 ft 462 kts 203°
2026-04-30 07:22 51.27594 20.19017 24896 ft 466 kts 203°
2026-04-30 07:23 51.24612 20.16958 25292 ft 468 kts 202°
2026-04-30 07:23 51.21611 20.14888 25692 ft 470 kts 202°
2026-04-30 07:23 51.18599 20.12813 26037 ft 474 kts 202°
2026-04-30 07:23 51.15561 20.10723 26391 ft 476 kts 202°
2026-04-30 07:24 51.12513 20.08630 26751 ft 478 kts 202°
2026-04-30 07:24 51.09454 20.06533 27081 ft 480 kts 202°
2026-04-30 07:24 51.06420 20.04456 27424 ft 482 kts 202°
2026-04-30 07:24 51.03331 20.02344 27753 ft 485 kts 202°
2026-04-30 07:25 51.00223 20.00221 28072 ft 486 kts 202°
2026-04-30 07:25 50.97106 19.98094 28398 ft 488 kts 202°
2026-04-30 07:25 50.93968 19.95958 28601 ft 493 kts 202°
2026-04-30 07:25 50.90812 19.93813 28895 ft 495 kts 202°
2026-04-30 07:26 50.87634 19.91655 29195 ft 496 kts 202°
2026-04-30 07:26 50.84449 19.89496 29496 ft 498 kts 202°
2026-04-30 07:26 50.81265 19.87341 29801 ft 499 kts 202°
2026-04-30 07:26 50.78063 19.85178 30047 ft 501 kts 202°
2026-04-30 07:27 50.74848 19.83010 30299 ft 503 kts 202°
2026-04-30 07:27 50.71620 19.80835 30596 ft 504 kts 202°
2026-04-30 07:27 50.68400 19.78668 30927 ft 503 kts 202°
2026-04-30 07:27 50.65188 19.76510 31327 ft 500 kts 202°
2026-04-30 07:28 50.61989 19.74363 31669 ft 499 kts 202°
2026-04-30 07:28 50.58790 19.72220 31955 ft 500 kts 202°
2026-04-30 07:28 50.55638 19.70108 32247 ft 499 kts 202°
2026-04-30 07:28 50.52448 19.67975 32560 ft 498 kts 202°
2026-04-30 07:29 50.49259 19.65850 32843 ft 498 kts 202°
2026-04-30 07:29 50.46073 19.63731 33136 ft 497 kts 202°
2026-04-30 07:29 50.43910 19.62294 33347 ft 496 kts 202°
2026-04-30 07:30 50.37598 19.58107 33921 ft 494 kts 202°
2026-04-30 07:30 50.34429 19.56008 34145 ft 495 kts 202°
2026-04-30 07:30 50.31260 19.53913 34375 ft 494 kts 202°
2026-04-30 07:31 50.28101 19.51827 34639 ft 493 kts 202°
2026-04-30 07:31 50.24928 19.49735 34873 ft 493 kts 202°
2026-04-30 07:31 50.21771 19.47655 35109 ft 493 kts 202°
2026-04-30 07:31 50.18608 19.45575 35360 ft 492 kts 202°
2026-04-30 07:32 50.15455 19.43504 35587 ft 491 kts 203°
2026-04-30 07:32 50.12312 19.41441 35851 ft 490 kts 203°
2026-04-30 07:32 50.09172 19.39384 36101 ft 488 kts 203°
2026-04-30 07:32 50.06084 19.37366 36277 ft 489 kts 203°
2026-04-30 07:33 50.02949 19.35321 36405 ft 487 kts 203°
2026-04-30 07:33 49.96696 19.31249 36485 ft 488 kts 203°
2026-04-30 07:34 49.90428 19.27179 36474 ft 487 kts 203°
2026-04-30 07:34 49.84183 19.23133 36466 ft 485 kts 203°
2026-04-30 07:35 49.77968 19.19118 36473 ft 484 kts 203°
2026-04-30 07:35 49.71794 19.15143 36460 ft 483 kts 203°
2026-04-30 07:36 49.65590 19.11155 36460 ft 482 kts 203°
2026-04-30 07:36 49.59389 19.07183 36460 ft 482 kts 203°
2026-04-30 07:37 49.53196 19.03226 36459 ft 482 kts 203°
2026-04-30 07:37 49.47000 18.99276 36465 ft 482 kts 203°
2026-04-30 07:38 49.40767 18.95429 36460 ft 482 kts 201°
2026-04-30 07:38 49.34454 18.91934 36453 ft 482 kts 200°
2026-04-30 07:39 49.28128 18.88494 36456 ft 483 kts 200°
2026-04-30 07:39 49.21845 18.85032 36467 ft 483 kts 200°
2026-04-30 07:40 49.15509 18.81519 36460 ft 484 kts 200°
2026-04-30 07:40 49.09166 18.78003 36448 ft 485 kts 200°
2026-04-30 07:41 49.02816 18.74493 36458 ft 485 kts 200°
2026-04-30 07:41 48.96469 18.70995 36454 ft 484 kts 200°
2026-04-30 07:42 48.90168 18.67533 36445 ft 484 kts 200°
2026-04-30 07:42 48.83853 18.64072 36448 ft 482 kts 200°
2026-04-30 07:43 48.77536 18.60621 36426 ft 482 kts 200°
2026-04-30 07:43 48.71227 18.57184 36435 ft 481 kts 200°
2026-04-30 07:44 48.64937 18.53766 36429 ft 480 kts 200°
2026-04-30 07:44 48.58650 18.50358 36431 ft 479 kts 200°
2026-04-30 07:45 48.52402 18.46983 36428 ft 479 kts 200°
2026-04-30 07:45 48.46118 18.43593 36420 ft 479 kts 200°
2026-04-30 07:46 48.39844 18.40216 36423 ft 479 kts 200°
2026-04-30 07:46 48.33579 18.36856 36419 ft 477 kts 201°
2026-04-30 07:47 48.27310 18.33502 36425 ft 477 kts 200°
2026-04-30 07:47 48.21048 18.30161 36424 ft 477 kts 201°
2026-04-30 07:48 48.14827 18.26850 36422 ft 477 kts 200°
2026-04-30 07:48 48.12484 18.25605 36425 ft 478 kts 201°
2026-04-30 07:49 48.11183 18.24914 36426 ft 478 kts 201°
2026-04-30 07:49 48.04914 18.21593 36421 ft 478 kts 201°
2026-04-30 07:50 47.98631 18.18270 36423 ft 479 kts 200°
2026-04-30 07:50 47.93403 18.15512 36423 ft 479 kts 201°
2026-04-30 07:51 47.87116 18.12203 36426 ft 479 kts 201°
2026-04-30 07:51 47.80824 18.08900 36424 ft 479 kts 200°
2026-04-30 07:52 47.74680 18.05220 36418 ft 478 kts 211°
2026-04-30 07:52 47.69196 17.99726 36431 ft 475 kts 218°
2026-04-30 07:53 47.63818 17.94022 36432 ft 475 kts 218°
2026-04-30 07:53 47.58421 17.88376 36429 ft 474 kts 217°
2026-04-30 07:54 47.53040 17.82822 36433 ft 475 kts 217°
2026-04-30 07:54 47.47612 17.77250 36433 ft 474 kts 217°
2026-04-30 07:55 47.42189 17.71701 36433 ft 474 kts 217°
2026-04-30 07:55 47.36769 17.66170 36431 ft 473 kts 217°
2026-04-30 07:56 47.31358 17.60660 36432 ft 472 kts 217°
2026-04-30 07:56 47.25950 17.55165 36434 ft 472 kts 217°
2026-04-30 07:57 47.20585 17.49726 36429 ft 471 kts 217°
2026-04-30 07:57 47.15183 17.44260 36430 ft 470 kts 217°
2026-04-30 07:58 47.09790 17.38821 36432 ft 469 kts 217°
2026-04-30 07:58 47.04407 17.33408 36431 ft 468 kts 217°
2026-04-30 07:59 46.99037 17.28021 36430 ft 467 kts 217°
2026-04-30 07:59 46.93700 17.22679 36433 ft 466 kts 217°
2026-04-30 08:00 46.85658 17.14651 36434 ft 466 kts 217°
2026-04-30 08:00 46.80303 17.09323 36433 ft 466 kts 217°
2026-04-30 08:01 46.74937 17.03995 36429 ft 465 kts 217°
2026-04-30 08:01 46.69577 16.98690 36438 ft 465 kts 217°
2026-04-30 08:02 46.61580 16.90794 36431 ft 465 kts 217°
2026-04-30 08:03 46.50849 16.80245 36423 ft 466 kts 217°
2026-04-30 08:04 46.45477 16.74982 36424 ft 466 kts 217°
2026-04-30 08:04 46.40096 16.69824 36415 ft 468 kts 213°
2026-04-30 08:05 46.34238 16.65653 36423 ft 470 kts 208°
2026-04-30 08:05 46.28293 16.61713 36422 ft 470 kts 208°
2026-04-30 08:06 46.22367 16.57740 36424 ft 469 kts 208°
2026-04-30 08:06 46.16455 16.53723 36429 ft 469 kts 209°
2026-04-30 08:07 46.10555 16.49703 36418 ft 469 kts 209°
2026-04-30 08:07 46.04647 16.45683 36422 ft 469 kts 209°
2026-04-30 08:08 45.98749 16.41681 36422 ft 469 kts 209°
2026-04-30 08:08 45.92854 16.37695 36428 ft 468 kts 209°
2026-04-30 08:09 45.87003 16.33749 36416 ft 467 kts 209°
2026-04-30 08:09 45.81115 16.29786 36422 ft 466 kts 209°
2026-04-30 08:10 45.75246 16.25846 36428 ft 466 kts 209°
2026-04-30 08:10 45.69385 16.21917 36430 ft 465 kts 209°
2026-04-30 08:11 45.63522 16.17993 36427 ft 464 kts 209°
2026-04-30 08:11 45.57668 16.14093 36424 ft 464 kts 209°
2026-04-30 08:12 45.51822 16.10206 36424 ft 463 kts 209°
2026-04-30 08:12 45.45974 16.06324 36420 ft 463 kts 209°
2026-04-30 08:13 45.40175 16.02481 36399 ft 463 kts 209°
2026-04-30 08:13 45.34344 15.98629 36391 ft 462 kts 209°
2026-04-30 08:14 45.28521 15.94790 36392 ft 461 kts 210°
2026-04-30 08:14 45.22701 15.90960 36392 ft 460 kts 209°
2026-04-30 08:15 45.16834 15.87308 36390 ft 461 kts 207°
2026-04-30 08:15 45.10957 15.83840 36383 ft 460 kts 207°
2026-04-30 08:16 45.05052 15.80357 36375 ft 459 kts 207°
2026-04-30 08:16 44.99173 15.76865 36365 ft 457 kts 208°
2026-04-30 08:17 44.93315 15.73376 36384 ft 458 kts 208°
2026-04-30 08:17 44.90382 15.71631 36565 ft 458 kts 208°
2026-04-30 08:17 44.87456 15.69893 36891 ft 453 kts 208°
2026-04-30 08:17 44.84568 15.68184 37280 ft 448 kts 208°
2026-04-30 08:18 44.81686 15.66477 37275 ft 451 kts 208°
2026-04-30 08:18 44.75897 15.63050 37297 ft 449 kts 208°
2026-04-30 08:19 44.70175 15.59675 37280 ft 443 kts 208°
2026-04-30 08:19 44.64546 15.56362 37264 ft 439 kts 208°
2026-04-30 08:20 44.58918 15.53053 37254 ft 437 kts 208°
2026-04-30 08:20 44.53326 15.49776 37249 ft 435 kts 208°
2026-04-30 08:21 44.47736 15.46500 37240 ft 435 kts 208°
2026-04-30 08:21 44.42134 15.43223 37236 ft 437 kts 208°
2026-04-30 08:22 44.36507 15.39942 37225 ft 439 kts 208°
2026-04-30 08:22 44.30900 15.36683 37227 ft 440 kts 208°
2026-04-30 08:23 44.25228 15.33392 37231 ft 442 kts 208°
2026-04-30 08:23 44.19533 15.30093 37217 ft 444 kts 208°
2026-04-30 08:24 44.13820 15.26790 37213 ft 445 kts 208°
2026-04-30 08:24 44.08096 15.23489 37212 ft 446 kts 208°
2026-04-30 08:25 44.02394 15.20209 37211 ft 445 kts 208°
2026-04-30 08:25 43.96675 15.16926 37216 ft 444 kts 209°
2026-04-30 08:26 43.90975 15.13662 37206 ft 441 kts 209°
2026-04-30 08:26 43.85316 15.10425 37204 ft 438 kts 209°
2026-04-30 08:27 43.79696 15.07217 37206 ft 435 kts 209°
2026-04-30 08:27 43.74148 15.04055 37205 ft 433 kts 209°
2026-04-30 08:28 43.68580 15.00890 37211 ft 431 kts 209°
2026-04-30 08:28 43.63032 14.97743 37213 ft 430 kts 209°
2026-04-30 08:29 43.57489 14.94602 37215 ft 430 kts 209°
2026-04-30 08:29 43.51937 14.91463 37214 ft 432 kts 209°
2026-04-30 08:30 43.46368 14.88322 37226 ft 434 kts 208°
2026-04-30 08:30 43.40805 14.85190 37228 ft 436 kts 208°
2026-04-30 08:31 43.35183 14.82032 37226 ft 437 kts 208°
2026-04-30 08:31 43.29561 14.78769 37222 ft 437 kts 212°
2026-04-30 08:32 43.24127 14.75054 37226 ft 436 kts 213°
2026-04-30 08:32 43.18730 14.71247 37221 ft 437 kts 213°
2026-04-30 08:33 43.13319 14.67468 37220 ft 437 kts 213°
2026-04-30 08:33 43.07888 14.63717 37221 ft 436 kts 213°
2026-04-30 08:34 43.02494 14.60013 37219 ft 435 kts 213°
2026-04-30 08:34 42.97081 14.56308 37220 ft 434 kts 213°
2026-04-30 08:35 42.91685 14.52620 37231 ft 433 kts 213°
2026-04-30 08:35 42.86303 14.48948 37232 ft 432 kts 213°
2026-04-30 08:36 42.80929 14.45288 37224 ft 431 kts 213°
2026-04-30 08:36 42.75577 14.41649 37230 ft 430 kts 213°
2026-04-30 08:37 42.70202 14.38000 37234 ft 430 kts 213°
2026-04-30 08:37 42.64836 14.34368 37233 ft 430 kts 213°
2026-04-30 08:38 42.59516 14.30773 37244 ft 430 kts 213°
2026-04-30 08:38 42.54153 14.27155 37237 ft 431 kts 213°
2026-04-30 08:39 42.48782 14.23537 37237 ft 432 kts 212°
2026-04-30 08:39 42.43391 14.19912 37244 ft 433 kts 212°
2026-04-30 08:40 42.38019 14.16309 37243 ft 434 kts 212°
2026-04-30 08:40 42.32593 14.12677 37244 ft 436 kts 212°
2026-04-30 08:41 42.27152 14.09042 37239 ft 436 kts 212°
2026-04-30 08:41 42.21704 14.05409 37235 ft 437 kts 212°
2026-04-30 08:42 42.16248 14.01777 37222 ft 437 kts 212°
2026-04-30 08:42 42.10787 13.98152 37202 ft 437 kts 212°
2026-04-30 08:43 42.05375 13.94565 37203 ft 436 kts 212°
2026-04-30 08:43 41.99924 13.90958 37191 ft 435 kts 212°
2026-04-30 08:44 41.94491 13.87372 37187 ft 434 kts 212°
2026-04-30 08:44 41.89984 13.84403 37160 ft 433 kts 212°
2026-04-30 08:45 41.84579 13.80845 37167 ft 432 kts 212°
2026-04-30 08:45 41.79176 13.77293 37149 ft 432 kts 212°
2026-04-30 08:46 41.73780 13.73755 37154 ft 431 kts 212°
2026-04-30 08:46 41.68379 13.70222 37144 ft 431 kts 212°
2026-04-30 08:47 41.62983 13.66694 37133 ft 432 kts 212°
2026-04-30 08:47 41.57626 13.63201 37137 ft 431 kts 212°
2026-04-30 08:48 41.52232 13.59692 37129 ft 432 kts 211°
2026-04-30 08:48 41.46823 13.56180 37137 ft 432 kts 211°
2026-04-30 08:49 41.41401 13.52664 37137 ft 433 kts 211°
2026-04-30 08:49 41.35982 13.49160 37144 ft 433 kts 211°
2026-04-30 08:50 41.30548 13.45648 37148 ft 434 kts 211°
2026-04-30 08:50 41.25105 13.42139 37140 ft 435 kts 211°
2026-04-30 08:51 41.19654 13.38632 37139 ft 435 kts 211°
2026-04-30 08:51 41.14234 13.35151 37139 ft 436 kts 211°
2026-04-30 08:52 41.08772 13.31649 37141 ft 435 kts 211°
2026-04-30 08:52 41.03309 13.28155 37139 ft 435 kts 211°
2026-04-30 08:53 40.97847 13.24666 37119 ft 436 kts 210°
2026-04-30 08:53 40.92417 13.21203 37109 ft 436 kts 210°
2026-04-30 08:54 40.86965 13.17733 37109 ft 435 kts 210°
2026-04-30 08:54 40.81509 13.14267 37107 ft 434 kts 210°
2026-04-30 08:55 40.76063 13.10814 37116 ft 434 kts 210°
2026-04-30 08:55 40.70617 13.07367 37107 ft 433 kts 210°
2026-04-30 08:56 40.65170 13.03926 37110 ft 433 kts 210°
2026-04-30 08:56 40.59775 13.00525 37108 ft 433 kts 210°
2026-04-30 08:57 40.54334 12.97101 37108 ft 433 kts 210°
2026-04-30 08:57 40.48890 12.93679 37110 ft 433 kts 210°
2026-04-30 08:58 40.43452 12.90267 37107 ft 433 kts 210°
2026-04-30 08:58 40.38009 12.86859 37096 ft 434 kts 210°
2026-04-30 08:59 40.32544 12.83445 37083 ft 434 kts 210°
2026-04-30 08:59 40.27123 12.80064 37081 ft 435 kts 210°
2026-04-30 09:00 40.21649 12.76655 37085 ft 435 kts 210°
2026-04-30 09:00 40.16173 12.73251 37081 ft 436 kts 210°
2026-04-30 09:01 40.10687 12.69847 37076 ft 436 kts 210°
2026-04-30 09:01 40.05196 12.66445 37072 ft 437 kts 210°
2026-04-30 09:02 39.96987 12.61373 37073 ft 437 kts 209°
2026-04-30 09:02 39.91495 12.57986 37073 ft 436 kts 209°
2026-04-30 09:03 39.86001 12.54605 37075 ft 436 kts 209°
2026-04-30 09:03 39.80511 12.51231 37073 ft 436 kts 209°
2026-04-30 09:04 39.75030 12.47871 37076 ft 435 kts 210°
2026-04-30 09:04 39.69543 12.44512 37070 ft 435 kts 210°
2026-04-30 09:05 39.64104 12.41186 37075 ft 435 kts 209°
2026-04-30 09:05 39.58623 12.37843 37074 ft 435 kts 209°
2026-04-30 09:06 39.53147 12.34510 37075 ft 435 kts 209°
2026-04-30 09:06 39.47676 12.31183 37072 ft 434 kts 209°
2026-04-30 09:07 39.42203 12.27861 37074 ft 434 kts 210°
2026-04-30 09:07 39.36723 12.24541 37071 ft 435 kts 210°
2026-04-30 09:08 39.31274 12.21245 37065 ft 435 kts 210°
2026-04-30 09:08 39.25759 12.17914 37070 ft 435 kts 210°
2026-04-30 09:09 39.20317 12.14637 37064 ft 435 kts 210°
2026-04-30 09:09 39.14829 12.11336 37058 ft 435 kts 210°
2026-04-30 09:10 39.09347 12.08043 37055 ft 435 kts 210°
2026-04-30 09:10 39.03869 12.04758 37057 ft 434 kts 210°
2026-04-30 09:11 38.98394 12.01481 37059 ft 434 kts 210°
2026-04-30 09:11 38.92924 11.98211 37050 ft 433 kts 211°
2026-04-30 09:12 38.87445 11.94944 37056 ft 433 kts 211°
2026-04-30 09:12 38.82015 11.91711 37053 ft 433 kts 211°
2026-04-30 09:13 38.76548 11.88460 37050 ft 433 kts 211°
2026-04-30 09:13 38.71083 11.85217 37063 ft 433 kts 212°
2026-04-30 09:14 38.65614 11.81975 37059 ft 434 kts 212°
2026-04-30 09:14 38.60126 11.78730 37057 ft 435 kts 212°
2026-04-30 09:15 38.54633 11.75487 37057 ft 435 kts 212°
2026-04-30 09:15 38.49168 11.72265 37053 ft 436 kts 212°
2026-04-30 09:16 38.43652 11.69019 37056 ft 436 kts 212°
2026-04-30 09:16 38.38135 11.65778 37056 ft 437 kts 212°
2026-04-30 09:17 38.32608 11.62537 37055 ft 437 kts 212°
2026-04-30 09:17 38.27086 11.59304 37057 ft 437 kts 212°
2026-04-30 09:18 38.21564 11.56074 37054 ft 436 kts 212°
2026-04-30 09:18 38.16053 11.52859 37055 ft 436 kts 212°
2026-04-30 09:19 38.10542 11.49649 37049 ft 435 kts 212°
2026-04-30 09:19 38.05064 11.46462 37046 ft 435 kts 212°
2026-04-30 09:20 37.99565 11.43267 37044 ft 434 kts 212°
2026-04-30 09:20 37.94090 11.40039 37041 ft 430 kts 216°
2026-04-30 09:21 37.89348 11.35659 37051 ft 419 kts 224°
2026-04-30 09:21 37.84110 11.32120 37049 ft 436 kts 206°
2026-04-30 09:22 37.81148 11.31098 36846 ft 447 kts 199°
2026-04-30 09:22 37.78080 11.30322 36364 ft 450 kts 198°
2026-04-30 09:22 37.74999 11.29605 35842 ft 449 kts 197°
2026-04-30 09:22 37.71943 11.28907 35445 ft 444 kts 198°
2026-04-30 09:23 37.68951 11.28215 35033 ft 441 kts 198°
2026-04-30 09:23 37.65951 11.27506 34623 ft 437 kts 198°
2026-04-30 09:23 37.62971 11.26788 34222 ft 434 kts 198°
2026-04-30 09:23 37.60019 11.26068 33803 ft 431 kts 199°
2026-04-30 09:24 37.57084 11.25347 33394 ft 428 kts 199°
2026-04-30 09:24 37.54170 11.24631 32981 ft 425 kts 198°
2026-04-30 09:24 37.51276 11.23919 32588 ft 422 kts 198°
2026-04-30 09:24 37.48404 11.23214 32190 ft 420 kts 198°
2026-04-30 09:25 37.45540 11.22512 31799 ft 417 kts 198°
2026-04-30 09:25 37.42700 11.21817 31396 ft 414 kts 198°
2026-04-30 09:25 37.39871 11.21124 31003 ft 412 kts 198°
2026-04-30 09:25 37.37068 11.20439 30614 ft 409 kts 198°
2026-04-30 09:26 37.34279 11.19758 30223 ft 407 kts 198°
2026-04-30 09:26 37.31504 11.19081 29837 ft 404 kts 198°
2026-04-30 09:26 37.28785 11.18417 29451 ft 402 kts 198°
2026-04-30 09:26 37.26048 11.17751 29050 ft 399 kts 198°
2026-04-30 09:27 37.23336 11.17090 28663 ft 396 kts 198°
2026-04-30 09:27 37.20634 11.16432 28265 ft 395 kts 197°
2026-04-30 09:27 37.17940 11.15776 27874 ft 393 kts 197°
2026-04-30 09:27 37.15263 11.15126 27482 ft 391 kts 197°
2026-04-30 09:28 37.12599 11.14479 27089 ft 390 kts 197°
2026-04-30 09:28 37.09929 11.13830 26705 ft 391 kts 197°
2026-04-30 09:28 37.07263 11.13183 26314 ft 389 kts 197°
2026-04-30 09:28 37.04613 11.12541 25921 ft 387 kts 197°
2026-04-30 09:29 37.01975 11.11903 25529 ft 385 kts 197°
2026-04-30 09:29 36.99345 11.11267 25140 ft 383 kts 197°
2026-04-30 09:29 36.96738 11.10637 24763 ft 380 kts 196°
2026-04-30 09:29 36.94149 11.10012 24371 ft 378 kts 196°
2026-04-30 09:30 36.91598 11.09398 24001 ft 376 kts 196°
2026-04-30 09:30 36.89046 11.08781 23619 ft 372 kts 197°
2026-04-30 09:30 36.86523 11.08066 23233 ft 369 kts 199°
2026-04-30 09:30 36.84043 11.07284 22863 ft 367 kts 199°
2026-04-30 09:31 36.81572 11.06495 22482 ft 365 kts 199°
2026-04-30 09:31 36.79114 11.05718 22120 ft 363 kts 199°
2026-04-30 09:31 36.76671 11.04959 21749 ft 361 kts 199°
2026-04-30 09:31 36.74237 11.04213 21381 ft 359 kts 199°
2026-04-30 09:32 36.71818 11.03474 21014 ft 357 kts 199°
2026-04-30 09:32 36.69409 11.02742 20647 ft 354 kts 199°
2026-04-30 09:32 36.67015 11.02022 20285 ft 353 kts 198°
2026-04-30 09:32 36.64669 11.01318 19930 ft 350 kts 198°
2026-04-30 09:33 36.62304 11.00607 19567 ft 348 kts 198°
2026-04-30 09:33 36.59954 10.99903 19210 ft 346 kts 198°
2026-04-30 09:33 36.57621 10.99204 18856 ft 344 kts 198°
2026-04-30 09:33 36.55296 10.98506 18500 ft 343 kts 198°
2026-04-30 09:34 36.52984 10.97812 18148 ft 341 kts 198°
2026-04-30 09:34 36.50686 10.97123 17798 ft 339 kts 198°
2026-04-30 09:34 36.48397 10.96436 17444 ft 337 kts 198°
2026-04-30 09:34 36.46123 10.95755 17097 ft 336 kts 198°
2026-04-30 09:35 36.43857 10.95077 16748 ft 334 kts 198°
2026-04-30 09:35 36.41607 10.94402 16399 ft 332 kts 198°
2026-04-30 09:35 36.39363 10.93731 16056 ft 330 kts 198°
2026-04-30 09:35 36.37885 10.93290 15824 ft 329 kts 198°
2026-04-30 09:36 36.35661 10.92626 15483 ft 327 kts 198°
2026-04-30 09:36 36.33455 10.91968 15169 ft 325 kts 198°
2026-04-30 09:36 36.31268 10.91317 14894 ft 321 kts 198°
2026-04-30 09:36 36.29106 10.90673 14537 ft 320 kts 198°
2026-04-30 09:37 36.26942 10.90030 14186 ft 319 kts 198°
2026-04-30 09:37 36.24094 10.89182 13765 ft 316 kts 198°
2026-04-30 09:37 36.22655 10.88755 13547 ft 315 kts 198°
2026-04-30 09:37 36.20535 10.88125 13216 ft 313 kts 197°
2026-04-30 09:38 36.18419 10.87497 12872 ft 311 kts 197°
2026-04-30 09:38 36.16318 10.86873 12548 ft 310 kts 197°
2026-04-30 09:38 36.14229 10.86253 12226 ft 308 kts 197°
2026-04-30 09:38 36.12152 10.85637 11906 ft 306 kts 197°
2026-04-30 09:39 36.10109 10.85031 11571 ft 305 kts 197°
2026-04-30 09:39 36.08048 10.84420 11220 ft 305 kts 197°
2026-04-30 09:39 36.05986 10.83809 10865 ft 303 kts 197°
2026-04-30 09:39 36.03937 10.83201 10477 ft 304 kts 197°
2026-04-30 09:40 36.01903 10.82603 10275 ft 298 kts 197°
2026-04-30 09:40 35.99908 10.82013 10119 ft 290 kts 198°
2026-04-30 09:40 35.98161 10.80967 9913 ft 275 kts 227°
2026-04-30 09:40 35.97182 10.79025 9683 ft 264 kts 255°
2026-04-30 09:41 35.96955 10.76808 9399 ft 259 kts 274°
2026-04-30 09:41 35.97047 10.74592 9146 ft 260 kts 272°
2026-04-30 09:41 35.97007 10.72344 8879 ft 264 kts 267°
2026-04-30 09:41 35.96782 10.70085 8605 ft 265 kts 261°
2026-04-30 09:42 35.96155 10.67946 8331 ft 266 kts 245°
2026-04-30 09:42 35.95292 10.65945 8061 ft 264 kts 244°
2026-04-30 09:42 35.94401 10.63969 7762 ft 264 kts 243°
2026-04-30 09:42 35.93504 10.61993 7471 ft 264 kts 243°
2026-04-30 09:43 35.92615 10.60045 7195 ft 262 kts 243°
2026-04-30 09:43 35.91719 10.58088 6922 ft 262 kts 243°
2026-04-30 09:43 35.90825 10.56135 6650 ft 261 kts 243°
2026-04-30 09:43 35.89933 10.54194 6370 ft 259 kts 243°
2026-04-30 09:44 35.89052 10.52280 6095 ft 253 kts 243°
2026-04-30 09:44 35.88191 10.50419 5895 ft 247 kts 243°
2026-04-30 09:44 35.87339 10.48585 5698 ft 246 kts 243°
2026-04-30 09:44 35.86487 10.46753 5529 ft 246 kts 243°
2026-04-30 09:45 35.85630 10.44901 5305 ft 252 kts 243°
2026-04-30 09:45 35.84761 10.43018 5058 ft 252 kts 243°
2026-04-30 09:45 35.83898 10.41142 4812 ft 251 kts 243°
2026-04-30 09:45 35.82864 10.39425 4532 ft 253 kts 221°
2026-04-30 09:46 35.81301 10.38511 4284 ft 256 kts 191°
2026-04-30 09:46 35.79537 10.38634 4083 ft 254 kts 166°
2026-04-30 09:46 35.77860 10.39233 3908 ft 249 kts 163°
2026-04-30 09:46 35.76215 10.39871 3752 ft 245 kts 163°
2026-04-30 09:47 35.74602 10.40501 3651 ft 242 kts 163°
2026-04-30 09:47 35.73014 10.41194 3543 ft 243 kts 151°
2026-04-30 09:47 35.71791 10.42601 3437 ft 242 kts 118°
2026-04-30 09:47 35.71194 10.44526 3367 ft 242 kts 104°
2026-04-30 09:48 35.70757 10.46527 3266 ft 243 kts 103°
2026-04-30 09:48 35.70337 10.48527 3164 ft 240 kts 103°
2026-04-30 09:48 35.70051 10.50542 3024 ft 238 kts 84°
2026-04-30 09:48 35.70374 10.52499 3009 ft 233 kts 73°
2026-04-30 09:49 35.70797 10.54397 2993 ft 232 kts 72°
2026-04-30 09:49 35.71237 10.56289 2874 ft 229 kts 72°
2026-04-30 09:49 35.71680 10.58154 2582 ft 225 kts 73°
2026-04-30 09:49 35.72110 10.59965 2315 ft 215 kts 74°
2026-04-30 09:50 35.72522 10.61699 2025 ft 208 kts 75°
2026-04-30 09:50 35.72914 10.63352 1740 ft 194 kts 75°
2026-04-30 09:50 35.73280 10.64886 1506 ft 179 kts 75°
2026-04-30 09:50 35.73612 10.66295 1307 ft 165 kts 72°
2026-04-30 09:51 35.73939 10.67664 1055 ft 165 kts 72°
2026-04-30 09:51 35.74253 10.68984 830 ft 157 kts 72°
2026-04-30 09:51 35.74556 10.70262 609 ft 154 kts 72°
2026-04-30 09:51 35.74860 10.71516 387 ft 154 kts 72°
2026-04-30 09:52 35.75156 10.72782 223 ft 152 kts 72°
2026-04-30 09:52 35.75458 10.74038 36 ft 153 kts 72°
2026-04-30 09:52 35.75738 10.75201 15 ft 124 kts 73°
2026-04-30 09:52 35.75921 10.75979 9 ft 48 kts 74°
2026-04-30 09:53 35.76006 10.76240 10 ft 15 kts 27°
2026-04-30 09:53 35.76102 10.76225 10 ft 14 kts 341°
2026-04-30 09:53 35.76135 10.76153 9 ft 9 kts 256°
2026-04-30 09:53 35.76119 10.76084 9 ft 8 kts 253°
2026-04-30 09:54 35.76103 10.76017 9 ft 8 kts 253°
2026-04-30 09:54 35.76071 10.75958 10 ft 10 kts 227°
2026-04-30 09:54 35.76038 10.75869 11 ft 13 kts 254°
2026-04-30 09:54 35.76013 10.75761 9 ft 13 kts 254°
2026-04-30 09:55 35.75989 10.75658 9 ft 13 kts 254°
2026-04-30 09:55 35.75964 10.75556 9 ft 12 kts 253°
2026-04-30 09:55 35.75941 10.75456 10 ft 12 kts 253°
2026-04-30 09:55 35.75934 10.75405 10 ft 4 kts 294°
2026-04-30 09:56 35.75961 10.75392 9 ft 4 kts 343°
2026-04-30 09:56 35.75988 10.75382 9 ft 3 kts 343°
2026-04-30 09:56 35.75992 10.75380 9 ft 0 kts 343°